Flag for Russia Weather past 2 weeks in Samara, Russia

30 °F


Feels Like: 20 °F
Forecast: 28 / 36 °F
Wind: 13 mph from Southeast

Location: Samara

Current Time: Nov 30, 2015 at 6:23:35 PM

Latest Report: Nov 30, 2015 at 5:30 PM

Visibility: 10 mi

Pressure: 30.07 "Hg

Humidity: 69%

Dew point: 21 °F

Location of SamaraLocation

Historic Weather in Samara — Graph


Samara temperature yesterday

Maximum temperature yesterday: 32 °F (at 1:30 PM)
Minimum temperature yesterday: 23 °F (at 12:00 AM)
Average temperature yesterday: 28 °F

Past Weeks' High & Low Weather Summary

High48 °F (Nov 23, 12:30 AM)100% (Nov 15, 5:00 PM)30.27 "Hg (Nov 15, 5:00 PM)
Low7 °F (Nov 19, 8:00 AM)64% (Nov 28, 2:00 PM)29.53 "Hg (Nov 27, 12:30 AM)
Average29 °F89%30.00 "Hg
* Reported Nov 15 5:00 PM — Nov 30 5:00 PM, Samara, Weather by CustomWeather, © 2015

Note: Actual official high and low records may vary slightly from our data, if they occured in-between our weather recording intervals... More about our weather records


Samara weather history for previous 24 hours

Time TempWeatherWind HumidityBarometerVisibility
5:00 PM
Mon, Nov 30
30 °FSunny.13 mph69%30.07 "Hg10 mi
4:30 PM30 °FSunny.10 mph75%30.07 "Hg10 mi
4:00 PM32 °FSunny.10 mph64%30.07 "Hg10 mi
3:30 PM32 °FSunny.13 mph69%30.07 "Hg10 mi
3:00 PM32 °FSunny.13 mph69%30.09 "Hg10 mi
2:30 PM32 °FSunny.13 mph69%30.09 "Hg10 mi
2:00 PM32 °FSunny.10 mph69%30.09 "Hg10 mi
1:30 PM30 °FSunny.8 mph75%30.12 "Hg10 mi
1:00 PM30 °FSunny.13 mph69%30.12 "Hg10 mi
12:30 PM30 °FSunny.17 mph69%30.12 "Hg10 mi
11:00 AM28 °FSunny.10 mph74%30.15 "Hg10 mi
10:30 AM23 °FSunny.8 mph86%30.15 "Hg10 mi
9:30 AM21 °FSunny.8 mph86%30.15 "Hg10 mi
9:00 AM19 °FClear.6 mph93%30.15 "Hg10 mi
8:30 AM19 °FClear.6 mph93%30.15 "Hg10 mi
7:30 AM18 °FClear.6 mph93%30.18 "Hg10 mi
7:00 AM19 °FClear.6 mph93%30.18 "Hg10 mi
6:30 AM19 °FClear.6 mph93%30.18 "Hg10 mi
6:00 AM25 °FClear.8 mph86%30.18 "Hg10 mi
5:30 AM23 °FClear.6 mph86%30.18 "Hg10 mi
4:30 AM23 °FIce fog.8 mph93%30.18 "Hg3 mi
4:00 AM25 °FIce fog.8 mph93%30.18 "Hg3 mi
3:30 AM21 °FIce fog.6 mph93%30.18 "Hg3 mi
3:00 AM23 °FIce fog.6 mph86%30.18 "Hg3 mi
2:30 AM25 °FIce fog.3 mph93%30.18 "Hg3 mi
2:00 AM21 °FIce fog.3 mph100%30.18 "Hg3 mi
1:30 AM25 °FIce fog.3 mph93%30.18 "Hg3 mi
1:00 AM25 °FIce fog.1 mph93%30.18 "Hg3 mi
12:30 AM27 °FIce fog.3 mph93%30.18 "Hg3 mi
12:00 AM27 °FClear.6 mph93%30.18 "Hg10 mi
11:30 PM
Sun, Nov 29
27 °FClear.1 mph93%30.18 "Hg10 mi
11:00 PM27 °FClear.6 mph93%30.18 "Hg10 mi
10:30 PM27 °FClear.3 mph93%30.18 "Hg10 mi
10:00 PM28 °FPassing clouds.3 mph86%30.18 "HgN/A
9:30 PM27 °FClear.1 mph86%30.18 "Hg10 mi
9:00 PM28 °FClear.6 mph80%30.18 "Hg10 mi
8:30 PM28 °FClear.1 mph80%30.18 "Hg10 mi
8:00 PM30 °FClear.1 mph80%30.18 "Hg10 mi
7:30 PM32 °FClear.6 mph75%30.18 "Hg10 mi
7:00 PM30 °FClear.3 mph80%30.18 "Hg10 mi
6:30 PM28 °FClear.1 mph86%30.18 "Hg10 mi
6:00 PM30 °FClear.1 mph86%30.18 "Hg10 mi
Weather by CustomWeather, © 2015

See weather overviewHow to use our weather pages